,,,PA_Meas_PMT16A,,PR_Meas_QMR101_102,,RH_Meas_QMH101,,SR_Meas_QMS101,,TA_Meas_QMH101,,GenWind,,GenWind,
date,time,status,PA,status,PR,status,RH,status,SR,status,TA,status,DirAvg,status,SpdAvg,
2010-01-15, 00:00:04,VALID,1004.39,VALID,0,VALID,82.1173,VALID,0,VALID,25.2981,VALID,348,VALID,0.678906,
2010-01-15, 00:01:04,VALID,1004.36,VALID,0,VALID,81.9647,VALID,0,VALID,25.3604,VALID,335,VALID,0.933984,
2010-01-15, 00:02:04,VALID,1004.35,VALID,0,VALID,81.8808,VALID,0,VALID,25.3798,VALID,3,VALID,0.572656,
2010-01-15, 00:03:04,VALID,1004.34,VALID,0,VALID,82.102,VALID,0,VALID,25.3779,VALID,355,VALID,0.345313,
2010-01-15, 00:04:04,VALID,1004.36,VALID,0,VALID,82.1249,VALID,0,VALID,25.3993,VALID,339,VALID,0.0605469,
2010-01-15, 00:05:04,VALID,1004.33,VALID,0,VALID,82.2088,VALID,0,VALID,25.3779,VALID,279,VALID,0.078125,
2010-01-15, 00:06:04,VALID,1004.34,VALID,0,VALID,81.9876,VALID,0,VALID,25.3779,VALID,295,VALID,0.576563,
2010-01-15, 00:07:04,VALID,1004.34,VALID,0,VALID,82.1096,VALID,0,VALID,25.3974,VALID,308,VALID,0.241406,
2010-01-15, 00:08:04,VALID,1004.3,VALID,0,VALID,81.9342,VALID,0,VALID,25.4383,VALID,343,VALID,0.672266,
2010-01-15, 00:09:04,VALID,1004.31,VALID,0,VALID,82.1325,VALID,0,VALID,25.3974,VALID,355,VALID,0.263281,
2010-01-15, 00:10:04,VALID,1004.29,VALID,0,VALID,81.9571,VALID,0,VALID,25.4169,VALID,355,VALID,0.0867188,
2010-01-15, 00:11:04,VALID,1004.3,VALID,0,VALID,81.9647,VALID,0,VALID,25.4363,VALID,347,VALID,0.485156,
2010-01-15, 00:12:04,VALID,1004.27,VALID,0,VALID,81.5909,VALID,0,VALID,25.4363,VALID,331,VALID,1.31523,
2010-01-15, 00:13:04,VALID,1004.25,VALID,0,VALID,81.7129,VALID,0,VALID,25.4558,VALID,318,VALID,0.262891,
2010-01-15, 00:14:04,VALID,1004.23,VALID,0,VALID,81.5375,VALID,0,VALID,25.4948,VALID,352,VALID,0.255859,
2010-01-15, 00:15:04,VALID,1004.24,VALID,0,VALID,81.5832,VALID,0,VALID,25.5142,VALID,335,VALID,0.308984,
2010-01-15, 00:16:04,VALID,1004.21,VALID,0,VALID,81.774,VALID,0,VALID,25.5142,VALID,343,VALID,0.39375,
2010-01-15, 00:17:04,VALID,1004.24,VALID,0,VALID,81.8274,VALID,0,VALID,25.5532,VALID,324,VALID,0.527734,
2010-01-15, 00:18:04,VALID,1004.22,VALID,0,VALID,81.9265,VALID,0,VALID,25.5318,VALID,336,VALID,0.173438,
2010-01-15, 00:19:04,VALID,1004.23,VALID,0,VALID,81.7969,VALID,0,VALID,25.5123,VALID,324,VALID,0.495313,
2010-01-15, 00:20:04,VALID,1004.2,VALID,0,VALID,81.5298,VALID,0,VALID,25.5532,VALID,289,VALID,0.426953,
2010-01-15, 00:21:04,VALID,1004.18,VALID,0,VALID,81.507,VALID,0,VALID,25.5727,VALID,339,VALID,0.5125,
2010-01-15, 00:22:04,VALID,1004.21,VALID,0,VALID,81.5527,VALID,0,VALID,25.5921,VALID,352,VALID,0.366406,
2010-01-15, 00:23:04,VALID,1004.23,VALID,0,VALID,81.4612,VALID,0,VALID,25.5921,VALID,331,VALID,0.430078,
2010-01-15, 00:24:04,VALID,1004.22,VALID,0,VALID,81.4841,VALID,0,VALID,25.5921,VALID,333,VALID,0.530469,
2010-01-15, 00:25:04,VALID,1004.19,VALID,0,VALID,81.3925,VALID,0,VALID,25.6116,VALID,357,VALID,0.904297,
2010-01-15, 00:26:04,VALID,1004.19,VALID,0,VALID,81.4383,VALID,0,VALID,25.5707,VALID,268,VALID,0.2,
2010-01-15, 00:27:04,VALID,1004.17,VALID,0,VALID,81.4841,VALID,0,VALID,25.6097,VALID,269,VALID,0,
2010-01-15, 00:28:04,VALID,1004.18,VALID,0,VALID,81.4459,VALID,0,VALID,25.6116,VALID,292,VALID,0.535937,
2010-01-15, 00:29:04,VALID,1004.15,VALID,0,VALID,81.4612,VALID,0,VALID,25.6116,VALID,333,VALID,0.362891,
2010-01-15, 00:30:04,VALID,1004.13,VALID,0,VALID,81.5451,VALID,0,VALID,25.5902,VALID,335,VALID,0.351953,
2010-01-15, 00:31:04,VALID,1004.15,VALID,0,VALID,81.2476,VALID,0,VALID,25.5902,VALID,327,VALID,0.255469,
2010-01-15, 00:32:04,VALID,1004.15,VALID,0,VALID,81.2399,VALID,0,VALID,25.6097,VALID,234,VALID,0.485156,
2010-01-15, 00:33:04,VALID,1004.13,VALID,0,VALID,81.156,VALID,0,VALID,25.6311,VALID,273,VALID,0.298438,
2010-01-15, 00:34:04,VALID,1004.11,VALID,0,VALID,81.1865,VALID,0,VALID,25.6311,VALID,326,VALID,0.252734,
2010-01-15, 00:35:04,VALID,1004.09,VALID,0,VALID,80.9729,VALID,0,VALID,25.6311,VALID,285,VALID,0.670313,
2010-01-15, 00:36:04,VALID,1004.1,VALID,0,VALID,81.0416,VALID,0,VALID,25.6097,VALID,308,VALID,0.169141,
2010-01-15, 00:37:04,VALID,1004.1,VALID,0,VALID,81.1408,VALID,0,VALID,25.6311,VALID,342,VALID,0.15625,
2010-01-15, 00:38:04,VALID,1004.1,VALID,0,VALID,81.2171,VALID,0,VALID,25.6311,VALID,342,VALID,0.221094,
2010-01-15, 00:39:04,VALID,1004.1,VALID,0,VALID,81.2705,VALID,0,VALID,25.6116,VALID,356,VALID,0.287891,
2010-01-15, 00:40:04,VALID,1004.06,VALID,0,VALID,81.0569,VALID,0,VALID,25.6136,VALID,357,VALID,0.735547,
2010-01-15, 00:41:04,VALID,1004.07,VALID,0,VALID,80.9958,VALID,0,VALID,25.5921,VALID,356,VALID,0.563281,
2010-01-15, 00:42:04,VALID,1004.05,VALID,0,VALID,81.1484,VALID,0,VALID,25.5727,VALID,346,VALID,0.314844,
2010-01-15, 00:43:04,VALID,1004.08,VALID,0,VALID,81.3467,VALID,0,VALID,25.5727,VALID,333,VALID,0.141406,
2010-01-15, 00:44:04,VALID,1004.04,VALID,0,VALID,81.3467,VALID,0,VALID,25.5123,VALID,343,VALID,0.496094,
2010-01-15, 00:45:04,VALID,1004.01,VALID,0,VALID,81.6138,VALID,0,VALID,25.5123,VALID,344,VALID,0.228906,
2010-01-15, 00:46:04,VALID,1004,VALID,0,VALID,81.7358,VALID,0,VALID,25.4948,VALID,284,VALID,0.55625,
2010-01-15, 00:47:04,VALID,1004,VALID,0,VALID,81.6519,VALID,0,VALID,25.4539,VALID,333,VALID,0.565234,
2010-01-15, 00:48:04,VALID,1004,VALID,0,VALID,81.8655,VALID,0,VALID,25.4753,VALID,314,VALID,0.349219,
2010-01-15, 00:49:04,VALID,1004.01,VALID,0,VALID,81.8655,VALID,0,VALID,25.4558,VALID,271,VALID,0.273438,
2010-01-15, 00:50:04,VALID,1003.98,VALID,0,VALID,81.69,VALID,0,VALID,25.4344,VALID,343,VALID,0.265625,
2010-01-15, 00:51:04,VALID,1003.94,VALID,0,VALID,81.9647,VALID,0,VALID,25.4558,VALID,343,VALID,0.0101562,
2010-01-15, 00:52:04,VALID,1003.93,VALID,0,VALID,81.69,VALID,0,VALID,25.4344,VALID,357,VALID,0.963281,
2010-01-15, 00:53:04,VALID,1003.95,VALID,0,VALID,81.8503,VALID,0,VALID,25.4344,VALID,300,VALID,0.315234,
2010-01-15, 00:54:04,VALID,1003.92,VALID,0,VALID,81.8884,VALID,0,VALID,25.4558,VALID,9,VALID,0.644531,
2010-01-15, 00:55:04,VALID,1003.89,VALID,0,VALID,81.8655,VALID,0,VALID,25.3955,VALID,308,VALID,0.473047,
2010-01-15, 00:56:04,VALID,1003.9,VALID,0,VALID,81.9571,VALID,0,VALID,25.4169,VALID,345,VALID,0.0792969,
2010-01-15, 00:57:04,VALID,1003.9,VALID,0,VALID,81.9876,VALID,0,VALID,25.3974,VALID,345,VALID,0,
2010-01-15, 00:58:04,VALID,1003.85,VALID,0,VALID,82.1249,VALID,0,VALID,25.3974,VALID,345,VALID,0.404297,
2010-01-15, 00:59:04,VALID,1003.87,VALID,0,VALID,82.4377,VALID,0,VALID,25.3779,VALID,345,VALID,0.128516,
2010-01-15, 01:00:04,VALID,1003.88,VALID,0,VALID,82.1936,VALID,0,VALID,25.3565,VALID,359,VALID,0.529297,
2010-01-15, 01:01:04,VALID,1003.87,VALID,0,VALID,82.2012,VALID,0,VALID,25.337,VALID,353,VALID,0.321484,
2010-01-15, 01:02:04,VALID,1003.86,VALID,0,VALID,82.2851,VALID,0,VALID,25.3584,VALID,295,VALID,0.671484,
2010-01-15, 01:03:04,VALID,1003.85,VALID,0,VALID,81.9418,VALID,0,VALID,25.3779,VALID,354,VALID,0.635547,
2010-01-15, 01:04:04,VALID,1003.81,VALID,0,VALID,81.9265,VALID,0,VALID,25.376,VALID,350,VALID,0.492578,
2010-01-15, 01:05:04,VALID,1003.76,VALID,0,VALID,82.0257,VALID,0,VALID,25.4169,VALID,353,VALID,0.545703,
2010-01-15, 01:06:04,VALID,1003.79,VALID,0,VALID,82.0639,VALID,0,VALID,25.3974,VALID,345,VALID,0.545313,
2010-01-15, 01:07:04,VALID,1003.76,VALID,0,VALID,82.2012,VALID,0,VALID,25.3565,VALID,345,VALID,0.452344,
2010-01-15, 01:08:04,VALID,1003.74,VALID,0,VALID,82.0028,VALID,0,VALID,25.3779,VALID,345,VALID,0.796484,
2010-01-15, 01:09:04,VALID,1003.73,VALID,0,VALID,81.9952,VALID,0,VALID,25.3565,VALID,351,VALID,0.502734,
2010-01-15, 01:10:04,VALID,1003.73,VALID,0,VALID,82.1707,VALID,0,VALID,25.3565,VALID,329,VALID,0.347656,
2010-01-15, 01:11:04,VALID,1003.71,VALID,0,VALID,82.3385,VALID,0,VALID,25.3779,VALID,310,VALID,0.440625,
2010-01-15, 01:12:04,VALID,1003.67,VALID,0,VALID,82.4529,VALID,0,VALID,25.339,VALID,359,VALID,0.265234,
2010-01-15, 01:13:04,VALID,1003.68,VALID,0,VALID,82.5826,VALID,0,VALID,25.2981,VALID,359,VALID,0.0886719,
2010-01-15, 01:14:04,VALID,1003.68,VALID,0,VALID,82.5597,VALID,0,VALID,25.2786,VALID,355,VALID,0.435937,
2010-01-15, 01:15:04,VALID,1003.65,VALID,0,VALID,82.7047,VALID,0,VALID,25.3,VALID,310,VALID,0.381641,
2010-01-15, 01:16:04,VALID,1003.62,VALID,0,VALID,82.842,VALID,0,VALID,25.2592,VALID,349,VALID,0.156641,
2010-01-15, 01:17:04,VALID,1003.58,VALID,0,VALID,82.8878,VALID,0,VALID,25.2611,VALID,354,VALID,0.571484,
2010-01-15, 01:18:04,VALID,1003.56,VALID,0,VALID,82.842,VALID,0,VALID,25.2397,VALID,355,VALID,0.772656,
2010-01-15, 01:19:04,VALID,1003.59,VALID,0,VALID,82.9412,VALID,0,VALID,25.2611,VALID,347,VALID,0.233594,
2010-01-15, 01:20:04,VALID,1003.61,VALID,0,VALID,83.1014,VALID,0,VALID,25.2416,VALID,321,VALID,0.204688,
2010-01-15, 01:21:04,VALID,1003.59,VALID,0,VALID,83.3303,VALID,0,VALID,25.2416,VALID,313,VALID,0,
2010-01-15, 01:22:04,VALID,1003.61,VALID,0,VALID,83.2845,VALID,0,VALID,25.2202,VALID,333,VALID,0.201562,
2010-01-15, 01:23:04,VALID,1003.58,VALID,0,VALID,83.2845,VALID,0,VALID,25.2221,VALID,333,VALID,0.260156,
2010-01-15, 01:24:04,VALID,1003.54,VALID,0,VALID,83.254,VALID,0,VALID,25.2007,VALID,345,VALID,0.513672,
2010-01-15, 01:25:04,VALID,1003.54,VALID,0,VALID,83.3608,VALID,0,VALID,25.1813,VALID,355,VALID,0.448047,
2010-01-15, 01:26:04,VALID,1003.53,VALID,0,VALID,83.3913,VALID,0,VALID,25.2027,VALID,355,VALID,0,
2010-01-15, 01:27:04,VALID,1003.54,VALID,0,VALID,83.4981,VALID,0,VALID,25.1813,VALID,355,VALID,0.124609,
2010-01-15, 01:28:04,VALID,1003.52,VALID,0,VALID,83.6278,VALID,0,VALID,25.1637,VALID,355,VALID,0.254687,
2010-01-15, 01:29:04,VALID,1003.5,VALID,0,VALID,83.582,VALID,0,VALID,25.1423,VALID,2,VALID,0.408984,
2010-01-15, 01:30:04,VALID,1003.45,VALID,0,VALID,83.6888,VALID,0,VALID,25.1229,VALID,330,VALID,0,
2010-01-15, 01:31:04,VALID,1003.45,VALID,0,VALID,83.7346,VALID,0,VALID,25.1034,VALID,344,VALID,0.663281,
2010-01-15, 01:32:04,VALID,1003.4,VALID,0,VALID,83.9024,VALID,0,VALID,25.1248,VALID,354,VALID,0.587109,
2010-01-15, 01:33:04,VALID,1003.39,VALID,0,VALID,83.8643,VALID,0,VALID,25.1053,VALID,348,VALID,0.403906,
2010-01-15, 01:34:04,VALID,1003.35,VALID,0,VALID,83.8643,VALID,0,VALID,25.1034,VALID,347,VALID,0.544922,
2010-01-15, 01:35:04,VALID,1003.35,VALID,0,VALID,84.0626,VALID,0,VALID,25.1267,VALID,355,VALID,0.323047,
2010-01-15, 01:36:04,VALID,1003.38,VALID,0,VALID,83.9482,VALID,0,VALID,25.1053,VALID,359,VALID,0.785937,
2010-01-15, 01:37:04,VALID,1003.37,VALID,0,VALID,83.994,VALID,0,VALID,25.1053,VALID,353,VALID,0.458984,
2010-01-15, 01:38:04,VALID,1003.4,VALID,0,VALID,83.9101,VALID,0,VALID,25.1034,VALID,352,VALID,0.563281,
2010-01-15, 01:39:04,VALID,1003.38,VALID,0,VALID,83.9406,VALID,0,VALID,25.1248,VALID,350,VALID,0.362891,
2010-01-15, 01:40:04,VALID,1003.38,VALID,0,VALID,84.0245,VALID,0,VALID,25.1034,VALID,353,VALID,0.387109,
2010-01-15, 01:41:04,VALID,1003.36,VALID,0,VALID,84.0855,VALID,0,VALID,25.1053,VALID,353,VALID,0.359375,
2010-01-15, 01:42:04,VALID,1003.36,VALID,0,VALID,84.1542,VALID,0,VALID,25.1053,VALID,333,VALID,0.472656,
2010-01-15, 01:43:04,VALID,1003.34,VALID,0,VALID,84.1389,VALID,0,VALID,25.0839,VALID,23,VALID,0.0121094,
2010-01-15, 01:44:04,VALID,1003.32,VALID,0,VALID,84.1847,VALID,0,VALID,25.0839,VALID,353,VALID,0.477344,
2010-01-15, 01:45:04,VALID,1003.34,VALID,0,VALID,84.2,VALID,0,VALID,25.1053,VALID,274,VALID,0.317578,
2010-01-15, 01:46:04,VALID,1003.28,VALID,0,VALID,84.3296,VALID,0,VALID,25.1053,VALID,344,VALID,0.0683594,
2010-01-15, 01:47:04,VALID,1003.28,VALID,0,VALID,84.2228,VALID,0,VALID,25.1034,VALID,350,VALID,0.280078,
2010-01-15, 01:48:04,VALID,1003.26,VALID,0,VALID,84.1847,VALID,0,VALID,25.0839,VALID,347,VALID,0.729297,
2010-01-15, 01:49:04,VALID,1003.26,VALID,0,VALID,84.3525,VALID,0,VALID,25.1034,VALID,349,VALID,0.382422,
2010-01-15, 01:50:04,VALID,1003.24,VALID,0,VALID,84.261,VALID,0,VALID,25.1442,VALID,354,VALID,0.273047,
2010-01-15, 01:51:04,VALID,1003.25,VALID,0,VALID,84.2381,VALID,0,VALID,25.1442,VALID,355,VALID,0.200781,
2010-01-15, 01:52:04,VALID,1003.27,VALID,0,VALID,84.3983,VALID,0,VALID,25.1423,VALID,355,VALID,0.00117188,
2010-01-15, 01:53:04,VALID,1003.26,VALID,0,VALID,84.5051,VALID,0,VALID,25.121,VALID,355,VALID,0.125781,
2010-01-15, 01:54:04,VALID,1003.26,VALID,0,VALID,84.5356,VALID,0,VALID,25.1832,VALID,354,VALID,0.465625,
2010-01-15, 01:55:04,VALID,1003.24,VALID,0,VALID,84.2534,VALID,0,VALID,25.1832,VALID,349,VALID,0.545703,
2010-01-15, 01:56:04,VALID,1003.27,VALID,0,VALID,84.322,VALID,0,VALID,25.2027,VALID,320,VALID,0.369922,
2010-01-15, 01:57:04,VALID,1003.25,VALID,0,VALID,84.0397,VALID,0,VALID,25.2007,VALID,353,VALID,0.376953,
2010-01-15, 01:58:04,VALID,1003.27,VALID,0,VALID,84.0245,VALID,0.100563,VALID,25.2202,VALID,353,VALID,0.585938,
2010-01-15, 01:59:04,VALID,1003.26,VALID,0,VALID,84.0626,VALID,0,VALID,25.2397,VALID,353,VALID,0.110156,
2010-01-15, 02:00:04,VALID,1003.22,VALID,0,VALID,84.0931,VALID,0,VALID,25.2202,VALID,353,VALID,0.271094,
2010-01-15, 02:01:04,VALID,1003.22,VALID,0,VALID,83.8948,VALID,0,VALID,25.2611,VALID,323,VALID,0.624609,
2010-01-15, 02:02:04,VALID,1003.23,VALID,0,VALID,83.8033,VALID,0,VALID,25.2592,VALID,357,VALID,0.564844,
2010-01-15, 02:03:04,VALID,1003.23,VALID,0,VALID,83.8338,VALID,0,VALID,25.2806,VALID,355,VALID,0.360938,
2010-01-15, 02:04:04,VALID,1003.24,VALID,0,VALID,83.9024,VALID,0,VALID,25.3,VALID,356,VALID,0.566797,
2010-01-15, 02:05:04,VALID,1003.23,VALID,0,VALID,83.9101,VALID,0,VALID,25.3,VALID,355,VALID,0.519922,
2010-01-15, 02:06:04,VALID,1003.24,VALID,0,VALID,83.8567,VALID,0,VALID,25.2592,VALID,347,VALID,0.942578,
2010-01-15, 02:07:04,VALID,1003.22,VALID,0,VALID,83.9711,VALID,0,VALID,25.2592,VALID,350,VALID,0.373047,
2010-01-15, 02:08:04,VALID,1003.19,VALID,0,VALID,84.0779,VALID,0,VALID,25.2592,VALID,353,VALID,0.530469,
2010-01-15, 02:09:04,VALID,1003.16,VALID,0,VALID,83.8719,VALID,0,VALID,25.2592,VALID,356,VALID,0.495313,
2010-01-15, 02:10:04,VALID,1003.18,VALID,0,VALID,83.9711,VALID,0,VALID,25.2806,VALID,340,VALID,0.526563,
2010-01-15, 02:11:04,VALID,1003.12,VALID,0,VALID,84.1237,VALID,0,VALID,25.2611,VALID,332,VALID,0.266797,
2010-01-15, 02:12:04,VALID,1003.09,VALID,0,VALID,84.0855,VALID,0,VALID,25.1988,VALID,337,VALID,0.632422,
2010-01-15, 02:13:04,VALID,1003.09,VALID,0,VALID,84.1466,VALID,0,VALID,25.2202,VALID,338,VALID,0.525391,
2010-01-15, 02:14:04,VALID,1003.06,VALID,0,VALID,84.2305,VALID,0,VALID,25.2221,VALID,352,VALID,0.464063,
2010-01-15, 02:15:04,VALID,1003.07,VALID,0,VALID,84.3449,VALID,0,VALID,25.1813,VALID,336,VALID,0.307031,
2010-01-15, 02:16:04,VALID,1003.1,VALID,0,VALID,84.2534,VALID,0,VALID,25.1832,VALID,344,VALID,0.649609,
2010-01-15, 02:17:04,VALID,1003.09,VALID,0,VALID,84.2228,VALID,0,VALID,25.1813,VALID,343,VALID,0.821094,
2010-01-15, 02:18:04,VALID,1003.08,VALID,0,VALID,84.1542,VALID,0,VALID,25.1618,VALID,355,VALID,0.0929687,
2010-01-15, 02:19:04,VALID,1003.1,VALID,0,VALID,84.4822,VALID,0,VALID,25.1618,VALID,355,VALID,0.178516,
2010-01-15, 02:20:04,VALID,1003.06,VALID,0,VALID,84.4822,VALID,0,VALID,25.121,VALID,317,VALID,0.417578,
2010-01-15, 02:21:04,VALID,1003.07,VALID,0,VALID,84.4212,VALID,0,VALID,25.1637,VALID,306,VALID,0.130078,
2010-01-15, 02:22:04,VALID,1003.03,VALID,0,VALID,84.4975,VALID,0,VALID,25.1442,VALID,312,VALID,0.0550781,
2010-01-15, 02:23:04,VALID,1003.02,VALID,0,VALID,84.5127,VALID,0,VALID,25.1442,VALID,5,VALID,0.250391,
2010-01-15, 02:24:04,VALID,1003,VALID,0,VALID,84.5661,VALID,0,VALID,25.1229,VALID,2,VALID,0.375781,
2010-01-15, 02:25:04,VALID,1003.03,VALID,0,VALID,84.6806,VALID,0,VALID,25.1442,VALID,2,VALID,0.199609,
2010-01-15, 02:26:04,VALID,1003.02,VALID,0,VALID,84.5509,VALID,0,VALID,25.1248,VALID,354,VALID,0.532422,
2010-01-15, 02:27:04,VALID,1003.02,VALID,0,VALID,84.6043,VALID,0,VALID,25.1442,VALID,348,VALID,0.510938,
2010-01-15, 02:28:04,VALID,1003.03,VALID,0,VALID,84.4059,VALID,0,VALID,25.1423,VALID,358,VALID,0.286719,
2010-01-15, 02:29:04,VALID,1003,VALID,0,VALID,84.383,VALID,0,VALID,25.1851,VALID,329,VALID,0.0410156,
2010-01-15, 02:30:04,VALID,1003.01,VALID,0,VALID,84.3754,VALID,0,VALID,25.1423,VALID,352,VALID,0.726563,
2010-01-15, 02:31:04,VALID,1003,VALID,0,VALID,84.5356,VALID,0,VALID,25.1832,VALID,306,VALID,0.740625,
2010-01-15, 02:32:04,VALID,1003.01,VALID,0,VALID,84.3907,VALID,0,VALID,25.1832,VALID,355,VALID,0.466016,
2010-01-15, 02:33:04,VALID,1003.03,VALID,0,VALID,84.3754,VALID,0,VALID,25.1832,VALID,358,VALID,0.592578,
2010-01-15, 02:34:04,VALID,1003.01,VALID,0,VALID,84.3907,VALID,0,VALID,25.1618,VALID,355,VALID,0.69375,
2010-01-15, 02:35:04,VALID,1003,VALID,0,VALID,84.3373,VALID,0,VALID,25.1832,VALID,359,VALID,1.07383,
2010-01-15, 02:36:04,VALID,1003.01,VALID,0,VALID,84.3449,VALID,0,VALID,25.2007,VALID,5,VALID,0.336328,
2010-01-15, 02:37:04,VALID,1003.02,VALID,0,VALID,84.5433,VALID,0,VALID,25.2221,VALID,14,VALID,0.273047,
2010-01-15, 02:38:04,VALID,1003.01,VALID,0,VALID,84.5433,VALID,0,VALID,25.2007,VALID,14,VALID,0,
2010-01-15, 02:39:04,VALID,1003,VALID,0,VALID,84.6424,VALID,0,VALID,25.2221,VALID,14,VALID,0,
2010-01-15, 02:40:04,VALID,1002.99,VALID,0,VALID,84.6424,VALID,0,VALID,25.2007,VALID,11,VALID,0,
2010-01-15, 02:41:04,VALID,1002.97,VALID,0,VALID,84.6043,VALID,0,VALID,25.2007,VALID,297,VALID,0.34375,
2010-01-15, 02:42:04,VALID,1002.98,VALID,0,VALID,84.6577,VALID,0,VALID,25.2007,VALID,14,VALID,0.579297,
2010-01-15, 02:43:04,VALID,1002.98,VALID,0,VALID,84.6195,VALID,0,VALID,25.2007,VALID,9,VALID,0.00351562,
2010-01-15, 02:44:04,VALID,1002.95,VALID,0,VALID,84.5127,VALID,0,VALID,25.2007,VALID,1,VALID,0.610156,
2010-01-15, 02:45:04,VALID,1002.96,VALID,0,VALID,84.5585,VALID,0,VALID,25.2007,VALID,341,VALID,0.302344,
2010-01-15, 02:46:04,VALID,1002.91,VALID,0,VALID,84.6272,VALID,0,VALID,25.2221,VALID,348,VALID,0.388672,
2010-01-15, 02:47:04,VALID,1002.94,VALID,0,VALID,84.4364,VALID,0,VALID,25.263,VALID,349,VALID,1.09102,
2010-01-15, 02:48:04,VALID,1002.94,VALID,0,VALID,84.3983,VALID,0,VALID,25.2592,VALID,342,VALID,0.669922,
2010-01-15, 02:49:04,VALID,1002.97,VALID,0,VALID,84.3754,VALID,0,VALID,25.3,VALID,277,VALID,0.441016,
2010-01-15, 02:50:04,VALID,1002.95,VALID,0,VALID,84.4441,VALID,0,VALID,25.3,VALID,280,VALID,0.281641,
2010-01-15, 02:51:04,VALID,1002.94,VALID,0,VALID,84.4517,VALID,0,VALID,25.3195,VALID,312,VALID,0.500781,
2010-01-15, 02:52:04,VALID,1002.93,VALID,0,VALID,84.3754,VALID,0,VALID,25.339,VALID,9,VALID,0.0960938,
2010-01-15, 02:53:04,VALID,1002.91,VALID,0,VALID,84.2762,VALID,0,VALID,25.337,VALID,342,VALID,0.207813,
2010-01-15, 02:54:04,VALID,1002.9,VALID,0,VALID,84.1008,VALID,0,VALID,25.3779,VALID,32,VALID,0.64375,
2010-01-15, 02:55:04,VALID,1002.91,VALID,0,VALID,84.1466,VALID,0,VALID,25.3565,VALID,330,VALID,0.341016,
2010-01-15, 02:56:04,VALID,1002.9,VALID,0,VALID,84.055,VALID,0,VALID,25.3974,VALID,348,VALID,0.226172,
2010-01-15, 02:57:04,VALID,1002.93,VALID,0,VALID,84.0321,VALID,0,VALID,25.4169,VALID,316,VALID,0.121094,
2010-01-15, 02:58:04,VALID,1002.91,VALID,0,VALID,84.1237,VALID,0,VALID,25.4169,VALID,307,VALID,0,
2010-01-15, 02:59:04,VALID,1002.88,VALID,0,VALID,84.1237,VALID,0,VALID,25.4169,VALID,307,VALID,0,
2010-01-15, 03:00:04,VALID,1002.86,VALID,0,VALID,83.8033,VALID,0,VALID,25.3955,VALID,326,VALID,1.06953,
2010-01-15, 03:01:04,VALID,1002.85,VALID,0,VALID,83.8109,VALID,0,VALID,25.4149,VALID,300,VALID,0.366797,
2010-01-15, 03:02:04,VALID,1002.85,VALID,0,VALID,83.5896,VALID,0,VALID,25.4558,VALID,345,VALID,0.846094,
2010-01-15, 03:03:04,VALID,1002.85,VALID,0,VALID,83.6049,VALID,0,VALID,25.4753,VALID,356,VALID,0.485938,
2010-01-15, 03:04:04,VALID,1002.84,VALID,0,VALID,83.6736,VALID,0,VALID,25.4539,VALID,309,VALID,0,
2010-01-15, 03:05:04,VALID,1002.82,VALID,0,VALID,83.5973,VALID,0,VALID,25.4753,VALID,356,VALID,0.698828,
2010-01-15, 03:06:04,VALID,1002.8,VALID,0,VALID,83.6736,VALID,0,VALID,25.4539,VALID,353,VALID,0.237109,
2010-01-15, 03:07:04,VALID,1002.79,VALID,0,VALID,83.643,VALID,0,VALID,25.4734,VALID,354,VALID,0.05,
2010-01-15, 03:08:04,VALID,1002.78,VALID,0,VALID,83.643,VALID,0,VALID,25.4948,VALID,316,VALID,0.7375,
2010-01-15, 03:09:04,VALID,1002.79,VALID,0,VALID,83.8033,VALID,0,VALID,25.4948,VALID,334,VALID,0,
2010-01-15, 03:10:04,VALID,1002.78,VALID,0,VALID,83.8261,VALID,0,VALID,25.4753,VALID,351,VALID,0.610937,
2010-01-15, 03:11:04,VALID,1002.75,VALID,0,VALID,83.788,VALID,0,VALID,25.4753,VALID,267,VALID,0.801562,
2010-01-15, 03:12:04,VALID,1002.74,VALID,0,VALID,83.7346,VALID,0,VALID,25.4753,VALID,315,VALID,0.290625,
2010-01-15, 03:13:04,VALID,1002.72,VALID,0,VALID,83.5896,VALID,0,VALID,25.4753,VALID,341,VALID,0.858984,
2010-01-15, 03:14:04,VALID,1002.74,VALID,0,VALID,83.6507,VALID,0,VALID,25.4753,VALID,330,VALID,0.553125,
2010-01-15, 03:15:04,VALID,1002.73,VALID,0,VALID,83.7117,VALID,0,VALID,25.4539,VALID,348,VALID,0.774609,
2010-01-15, 03:16:04,VALID,1002.75,VALID,0,VALID,83.7727,VALID,0,VALID,25.4558,VALID,352,VALID,0.58125,
2010-01-15, 03:17:04,VALID,1002.75,VALID,0,VALID,83.7575,VALID,0,VALID,25.4558,VALID,251,VALID,0.426562,
2010-01-15, 03:18:04,VALID,1002.76,VALID,0,VALID,83.9253,VALID,0,VALID,25.4344,VALID,215,VALID,0.121094,
2010-01-15, 03:19:04,VALID,1002.79,VALID,0,VALID,83.8948,VALID,0,VALID,25.4149,VALID,276,VALID,0.375391,
2010-01-15, 03:20:04,VALID,1002.77,VALID,0,VALID,83.7193,VALID,0,VALID,25.4363,VALID,320,VALID,0.721094,
2010-01-15, 03:21:04,VALID,1002.76,VALID,0,VALID,83.9024,VALID,0,VALID,25.4149,VALID,269,VALID,0.0996094,
2010-01-15, 03:22:04,VALID,1002.79,VALID,0,VALID,84.1084,VALID,0,VALID,25.4149,VALID,326,VALID,0.314844,
2010-01-15, 03:23:04,VALID,1002.78,VALID,0,VALID,83.9101,VALID,0,VALID,25.4169,VALID,324,VALID,0.74375,
2010-01-15, 03:24:04,VALID,1002.81,VALID,0,VALID,84.2,VALID,0,VALID,25.4169,VALID,290,VALID,0.320703,
2010-01-15, 03:25:04,VALID,1002.83,VALID,0,VALID,84.2,VALID,0,VALID,25.4169,VALID,3,VALID,0.666016,
2010-01-15, 03:26:04,VALID,1002.83,VALID,0,VALID,84.2,VALID,0,VALID,25.3974,VALID,31,VALID,0.324219,
2010-01-15, 03:27:04,VALID,1002.87,VALID,0,VALID,84.2991,VALID,0,VALID,25.4169,VALID,339,VALID,0.165234,
2010-01-15, 03:28:04,VALID,1002.89,VALID,0,VALID,84.2,VALID,0,VALID,25.4169,VALID,337,VALID,0.211328,
2010-01-15, 03:29:04,VALID,1002.84,VALID,0,VALID,84.2534,VALID,0,VALID,25.4149,VALID,345,VALID,0.780469,
2010-01-15, 03:30:04,VALID,1002.84,VALID,0,VALID,84.2076,VALID,0,VALID,25.4363,VALID,1,VALID,0.863672,
2010-01-15, 03:31:04,VALID,1002.86,VALID,0,VALID,84.261,VALID,0,VALID,25.3955,VALID,354,VALID,0.516016,
2010-01-15, 03:32:04,VALID,1002.87,VALID,0,VALID,84.2839,VALID,0,VALID,25.4169,VALID,290,VALID,0.253906,
2010-01-15, 03:33:04,VALID,1002.89,VALID,0,VALID,84.1237,VALID,0,VALID,25.4169,VALID,346,VALID,0.904297,
2010-01-15, 03:34:04,VALID,1002.87,VALID,0,VALID,84.3907,VALID,0,VALID,25.3974,VALID,341,VALID,0.706641,
2010-01-15, 03:35:04,VALID,1002.86,VALID,0,VALID,84.4899,VALID,0,VALID,25.3779,VALID,350,VALID,0.334766,
2010-01-15, 03:36:04,VALID,1002.84,VALID,0,VALID,84.5127,VALID,0,VALID,25.337,VALID,351,VALID,0.634375,
2010-01-15, 03:37:04,VALID,1002.87,VALID,0,VALID,84.6195,VALID,0,VALID,25.339,VALID,349,VALID,0.446875,
2010-01-15, 03:38:04,VALID,1002.88,VALID,0,VALID,84.6729,VALID,0,VALID,25.339,VALID,341,VALID,0.868359,
2010-01-15, 03:39:04,VALID,1002.87,VALID,0,VALID,84.7569,VALID,0,VALID,25.339,VALID,336,VALID,0.658594,
2010-01-15, 03:40:04,VALID,1002.83,VALID,0,VALID,84.734,VALID,0,VALID,25.3176,VALID,354,VALID,0.515234,
2010-01-15, 03:41:04,VALID,1002.85,VALID,0,VALID,84.7874,VALID,0,VALID,25.339,VALID,348,VALID,0.660547,
2010-01-15, 03:42:04,VALID,1002.82,VALID,0,VALID,84.7035,VALID,0,VALID,25.339,VALID,339,VALID,0.946094,
2010-01-15, 03:43:04,VALID,1002.85,VALID,0,VALID,84.6806,VALID,0,VALID,25.3584,VALID,360,VALID,0.510938,
2010-01-15, 03:44:04,VALID,1002.85,VALID,0,VALID,84.4975,VALID,0,VALID,25.3779,VALID,359,VALID,0.85625,
2010-01-15, 03:45:04,VALID,1002.87,VALID,0,VALID,84.3144,VALID,0,VALID,25.4169,VALID,344,VALID,0.988281,